STARLINK-31974, 59885

Orbit data source: Space-Track

STARLINK-31974, 59885 is a payload satellite owned by SpaceX/Seattle (US) in LEO that was launched on Tue, 28 May 2024 UTC via an FALCON 9 launch vehicle from the Air Force Eastern Test Range (AFETR). Payload-class satellites include a variety of spacecraft equipped with specific instruments for various scientific and technological missions. These include communications satellites like Starlink; space stations such as the ISS; scientific satellites like the Hubble; Earth observation satellites from companies like Planet Labs, Umbra, and HawkEye 360; GPS; miniature CubeSats for education and research; and military/defense satellites.

Loading next visibility...
Identifier
59885, 2024-100A
Orbit
LEO
Country
Flag of USUS
Related business
Manufacturer
SpaceX/Seattle
Mission
Operational Commercial Communications
Bus & Motor
STARLINK V2M, Unknown motor
Mass
730 kg wet, ~700 kg dry
Launch date (UTC)
2024-05-28 (1 year ago)
Launch vehicle
FALCON 9
Launch site
Air Force Eastern Test Range (AFETR)
Object type
Payload
Rocket body
Debris
Shape & HBR
Box + 2 Pan, 17.7 m
Radar Cross Section
33.884 m², Large (>1 m²)

Expand to show TLE details & history
Last TLE update: 19 hours ago

TLE from 19 hours ago
0 STARLINK-31974
1 59885U 24100A   25310.80723284 -.00001475  00000-0 -44072-4 0  9997
2 59885  43.0044  99.3701 0001261 257.0331 103.0380 15.27582376 82261
Epoch: 2025-11-06T19:22Z
TLE epoch observation values (Epoch: 2025-11-06T19:22:24.917Z)
Latitude
-0.00001°
Longitude
122.50602°
Altitude
483.013 km
Speed
7.626 km/s
True Right ascension
06h 37m 28s
True Declination
0° 00' 00"
Sunlit
Object was in full shadow at epoch
Visualization orbit readout
Latitude
Unknown
Longitude
Unknown
Altitude
Unknown
Speed
Unknown
Apparent Right ascension
Unknown
Apparent Declination
Unknown
Sunlit
N/A
Visualization observer readout
Local Sidereal Time
10:07:23
Azimuth
Unknown
Elevation
Unknown
Doppler factor
Unknown
Orbital elements
Apogee altitude
485.852 km
Perigee altitude
484.121 km
Semi-major axis
6,863.123 km
Eccentricity
0.00013
Inclination
43.0044°
RAAN
99.3701°
Arg. of periapsis
257.0331°
True anomaly
103.05208°
Mean anomaly
103.038°
Eccentric anomaly
103.04504°
Mean motion
3.81734 °/min
Orbital period
94.31 mins
BSTAR
-0.000044072
Loading maneuver chart data...
Computing Atmospheric mass density...
Loading historical data...
Loading historical data...
Loading historical data...
Loading historical data...
Loading historical data...
Loading historical data...
Loading historical data...

Documentation

Showing up to 5 results
|